OKEAN-0
1 25860U 99039A 11334.96894966 .00000938 00000-0 15022-3 0 04976
2 25860 097.9076 297.0539 0001313 103.7379 256.3975 14.73982114665222
NOAA-16
1 26536U 00055A 11335.37335250 .00000405 00000-0 24327-3 0 5236
2 26536 099.1226 009.1670 0009872 283.4209 076.5902 14.12678154576961
NOAA-17
1 27453U 02032A 11334.87805417 .00000135 00000-0 76265-4 0 05063
2 27453 098.3604 006.7713 0012202 025.8159 334.3590 14.24357739490380
NOAA-18
1 28654U 05018A 11334.89275669 .00000100 00000-0 79816-4 0 09832
2 28654 099.0200 286.6280 0014463 358.9961 001.1187 14.11562566336443
NOAA-19
1 33591U 09005A 11334.85603547 .00000097 00000-0 78044-4 0 01721
2 33591 098.8448 272.3333 0013401 223.3063 136.7047 14.11252919144894
HUBBLE
1 20580U 90037B 11335.28238065 .00003275 00000-0 23204-3 0 8980
2 20580 028.4708 004.6347 0003460 106.4077 253.7047 15.01910365984794
ISS
1 25544U 98067A 11335.88173611 .00023559 00000-0 30367-3 0 5383
2 25544 051.6411 036.9583 0028440 114.3479 229.0205 15.58420005747087
CO-58
1 28895U 05043F 11334.30753915 .00001276 00000-0 27252-3 0 00379
2 28895 097.9414 204.0503 0018877 061.2110 299.0964 14.60346662324482
FALCON
1 30776U 07006E 11334.61474652 .00007147 00000-0 48386-3 0 2278
2 30776 035.4327 054.3846 0001922 072.0129 288.0797 15.05915349260139
MAST
1 31126U 07012K 11335.62590373 .00000988 00000-0 23146-3 0 3225
2 31126 097.8845 353.2939 0094624 010.0211 350.2845 14.53929638245413
CAPE1
1 31130U 07012P 11335.55944789 .00001385 00000-0 32608-3 0 3333
2 31130 097.8901 349.7765 0102702 021.9664 338.5863 14.52628869244934
COMPASS
1 32787U 08021E 11334.43256286 .00003542 00000-0 44001-3 0 01589
2 32787 097.8296 035.0189 0015512 358.2352 001.8788 14.83129007194199
AAUSAT2
1 32788U 08021F 11335.65506642 .00003921 00000-0 48349-3 0 1501
2 32788 097.8307 036.4988 0014963 355.3610 004.7462 14.83383141194393
DO-64
1 32789U 08021G 11334.71920243 .00005901 00000-0 70870-3 0 1644
2 32789 097.8387 036.9485 0015007 354.6258 005.4854 14.84278754194273
CO-66
1 32791U 08021J 11335.70295788 .00003231 00000-0 40595-3 0 1539
2 32791 097.8297 036.1384 0015871 353.6678 006.4312 14.82709348194322
RS-30
1 32953U 08025A 11335.72512290 .00000010 00000-0 00000 0 0 3048
2 32953 082.5034 058.5547 0019045 024.8784 335.3219 12.43017696159901
TACSAT-3
1 35001U 09028A 11335.89431428 .00087793 00000-0 97797-3 0 7815
2 35001 040.4507 228.1772 0009099 345.5947 014.4639 15.61716167143167
PHARMSAT
1 35002U 09028B 11335.87248291 .00058671 00000-0 75470-3 0 7242
2 35002 040.4703 228.3032 0013288 019.6320 340.5070 15.58037379143165
HAWKSAT1
1 35003U 09028C 11276.79285837 .02274821 58283-2 19360-2 0 8114
2 35003 040.4398 174.3672 0011414 274.3918 085.3844 16.13812532134570
CP6
1 35004U 09028D 11247.64656856 .16152067 73217-5 10011-2 0 7842
2 35004 040.4403 342.9642 0002956 038.0069 322.2231 16.41039951130139
METEOR-M
1 35865U 09049A 11335.77528592 .00000035 00000-0 35930-4 0 9506
2 35865 098.6850 028.5383 0001756 277.2301 082.8675 14.21849105114406
RS-38
1 35869U 09049E 11335.75408568 .00000113 00000-0 70815-4 0 9292
2 35869 098.6819 028.5403 0003862 268.6504 091.4231 14.22039766114417
ARISSAT1
1 37772U 98067CK 11335.64790316 .00301847 00000-0 12449-2 0 3680
2 37772 051.6346 031.2379 0006304 062.1212 075.5411 15.84508862 18723
SRMSAT
1 37839U 11058B 11335.73787526 .00000619 00000-0 19019-3 0 410
2 37839 019.9589 120.4167 0018817 196.9207 163.0570 14.11998671 7166
JUGNU
1 37841U 11058D 11334.74464006 .00000264 00000-0 00000 0 0 386
2 37841 019.9697 127.4083 0012252 162.7733 197.3112 14.10092754 7006
